Location: Artiguedieu
(43.5000°N, 0.5454°E)
Time: 13:51:13
(UTC+00:00)

HuskySat-1 - Pass Details

Date: 29 September 2021
Orbit: 445 x 458 km, 51.6° (Epoch: 27 October)

Event Time Altitude Azimuth Distance (km) Brightness Sun altitude
Rises 18:16:32 0° 213° (SSW) 2,444 ? -7.0°
Reaches altitude 10° 18:18:46 10° 204° (SSW) 1,579 ? -7.4°
Maximum altitude 18:22:01 33° 138° (SE) 777 ? -8.0°
Enters shadow 18:25:17 10° 73° (ENE) 1,595 ? -8.6°
